Location: Newark
(48.5667°N, 7.8167°E)
Time: 23:19:07
(UTC+00:00)

ISS - Pass Details

Date: 28 September 2021
Orbit: 417 x 423 km, 51.6° (Epoch: 15 October)

Event Time Altitude Azimuth Distance (km) Brightness Sun altitude
Rises 18:52:32 0° 289° (WNW) 2,368 1.9 -17.0°
Reaches altitude 10° 18:54:39 10° 292° (WNW) 1,504 0.4 -17.3°
Maximum altitude 18:58:01 67° 16° (NNE) 459 -3.7 -17.9°
Enters shadow 18:58:35 54° 71° (ENE) 520 -3.7 -18.0°
